Regional Weather Roundup
Issued by NWS

Home | Current Version | Previous Version | Graphics & Text | Print | Product List | Glossary On
Versions: 1 2 3 4 5 6 7 8 9 10 11 12 13 14 15 16 17 18 19 20 21 22 23 24 25 26 27 28 29 30 31 32 33 34 35 36 37 38 39 40 41 42 43 44 45 46 47 48 49 50
268
ASUS43 KIND 282209
RWRIN

WEATHER ROUNDUP FOR INDIANA
NATIONAL WEATHER SERVICE INDIANAPOLIS IN
600 PM EDT TUE MAR 28 2017

NOTE: "FAIR" INDICATES FEW OR NO CLOUDS BELOW 12,000 FEET WITH NO
SIGNIFICANT WEATHER AND/OR OBSTRUCTIONS TO VISIBILITY.

* - STATION DOES NOT REPORT WEATHER SUCH AS PRECIPITATION OR FOG.

+ - STATION NOT QUALITY CONTROLLED BY THE NATIONAL WEATHER SERVICE.
    USE DATA WITH CAUTION...ESPECIALLY DEWPOINT AND RELATIVE
    HUMIDITY OBSERVATIONS.

INZ001>003-010>013-019-020-282300-
NORTHWEST INDIANA

CITY           SKY/WX    TMP DP  RH WIND       PRES   REMARKS
GARY /AIRPORT/ CLOUDY    41  37  87 N14       30.16S
KNOX *+        CLOUDY    43  28  56 N10       30.12S
LA PORTE +     CLOUDY    41  39  91 N10       30.14R FOG
MICHIGAN CITY+ CLOUDY    39  39 100 N6        30.15S FOG
MONTICELLO +   CLOUDY    47  40  76 NW8       30.11R
RENSSELAER +   CLOUDY    45  39  81 N10       30.13R
VALPARAISO     CLOUDY    43  39  86 N10       30.14R

$$

LMZ046-743>745-282300-
SOUTHERN LAKE MICHIGAN

STATION/POSITION TIME  TEMP    WIND        PRES    WAVE
                       AIR SEA DIR/SP/G            HT
                 (UTC) (F)     (DEG/KT/KT) (MB)    (FT)
BURNS HARBOR     2130   38      20/  8/ 10 1021.3S
MICHIGAN CITY    2140   38     360/  7/  8   N/A

$$

INZ004-005-014>016-021>024-282300-
NORTH CENTRAL INDIANA

CITY           SKY/WX    TMP DP  RH WIND       PRES   REMARKS
ELKHART        CLOUDY    46  39  76 NE6       30.12R
GOSHEN         CLOUDY    48  39  71 N9        30.11R
LOGANSPORT +   CLOUDY    46  41  81 N8        30.11R
ROCHESTER +    CLOUDY    50  45  81 N8        30.11S
SOUTH BEND     CLOUDY    44  40  85 NW9       30.13R
WARSAW +       CLOUDY    46  41  81 N6        30.11R

$$

INZ006>009-017-018-025>027-282300-
NORTHEAST INDIANA

CITY           SKY/WX    TMP DP  RH WIND       PRES   REMARKS
ANGOLA *+      CLOUDY    48  37  66 N6        30.10R
AUBURN +       CLOUDY    50  41  71 N8        30.10R
FORT WAYNE     CLOUDY    51  44  77 N3        30.09R
HUNTINGTON +   CLOUDY    49  45  85 N6        30.09S
KENDALLVILLE + CLOUDY    47  41  77 N6        30.10R

$$

INZ028-029-035-036-043>045-051>053-282300-
WEST CENTRAL INDIANA

CITY           SKY/WX    TMP DP  RH WIND       PRES   REMARKS
CRAWFORDSVL +  CLOUDY    51  45  81 N7        30.09R
GREENCASTLE +  CLOUDY    54  45  71 N6        30.08R
LAFAYETTE      CLOUDY    48  42  80 N12       30.10R
TERRE HAUTE    CLOUDY    59  46  62 N8        30.07S

$$

INZ030>032-037>040-046>048-054>057-064-065-282300-
CENTRAL INDIANA

CITY           SKY/WX    TMP DP  RH WIND       PRES   REMARKS
CP ATTERBURY + CLOUDY    55  46  71 N9        30.06S
COLUMBUS       CLOUDY    55  52  88 N9        30.06R
FISHERS *+     CLOUDY    52  48  87 NW5       30.08R
FRANKFORT +    CLOUDY    53  46  77 N9        30.11R
GREENWOOD *+   CLOUDY    56  48  74 N6        30.07R
INDIANAPOLIS   CLOUDY    56  45  66 N10       30.07R
-EAGLE CREEK   CLOUDY    55  45  68 N6        30.07R
KOKOMO +       CLOUDY    50  44  80 N10       30.10R
MARION +       CLOUDY    51  45  78 N8        30.09R HAZE
MT COMFORT *+  CLOUDY    54  46  76 N8        30.07S
SHELBYVILLE    CLOUDY    57  47  69 N7        30.05S
ZIONSVILLE +   CLOUDY    51  46  80 N8        30.08S

$$

INZ033-034-041-042-049-050-058-059-282300-
EAST CENTRAL INDIANA

CITY           SKY/WX    TMP DP  RH WIND       PRES   REMARKS
MUNCIE         CLOUDY    53  47  79 NE5       30.07R
RICHMOND +     CLOUDY    50  46  87 N6        30.07R FOG

$$

INZ060-061-067>069-081>083-085>088-282300-
SOUTHWEST INDIANA

CITY           SKY/WX    TMP DP  RH WIND       PRES   REMARKS
EVANSVILLE     CLOUDY    61  52  72 N3        30.05S
HUNTINGBURG *+ SUNNY     61  52  72 N10       30.04S
WASHINGTON +   CLOUDY    60  48  64 CALM      30.04S

$$

INZ062-063-066-070>080-084-089>092-282300-
SOUTH CENTRAL AND SOUTHEAST INDIANA

CITY           SKY/WX    TMP DP  RH WIND       PRES   REMARKS
BEDFORD +      CLOUDY    59  48  67 NW3       30.04S
BLOOMINGTON    CLOUDY    58  47  66 N6        30.05S
MADISON *+     CLOUDY    59  50  72 N5        30.06S
NORTH VERNON + CLOUDY    57  52  82 N7        30.05S
SEYMOUR +      CLOUDY    59  50  72 N6        30.05R

$$





USA.gov is the U.S. government's official web portal to all federal, state and local government web resources and services.